Location: Krakow
(50.0212°N, 19.9423°E)
Time: 23:34:28
(UTC+02:00)

NOAA 18 - Pass Details

Date: 02 May 2025
Orbit: 837 x 856 km, 98.8° (Epoch: 16 April)

Event Time Altitude Azimuth Distance (km) Brightness Sun altitude
Exits shadow 22:14:29 28° 132° (SE) 1,566 6.0 -17.2°
Maximum altitude 22:17:16 54° 68° (ENE) 1,033 5.5 -17.5°
Drops below altitude 10° 22:22:40 10° 352° (N) 2,502 8.6 -18.0°
Enters shadow 23:21:47 -63° 168° (SSE) 12,278 11.1 -22.3°
